INTELSAT 20 (IS-20) (38740 NORAD) Tracking and Keplerian Element Data

This shows tracking and keplerian element data for the satellite.

Feedback or suggestion? Click here.




ElementValue
Catalog38740
NameINTELSAT 20 (IS-20)
Epoch Orbit4333
Epoch Day159.93104995
Epoch Year2024
RAAN78.7802
Inclination0.0044
Eccentricity0.0001587
Argument of Perigee101.1478
Mean Anonmoly120.5413
Mean Motion1.00273175
Decay Rate-2.5E-07
L11 38740U 12043A 24159.93104995 -.00000025 00000+0 00000+0 0 9999
L22 38740 0.0044 78.7802 0001587 101.1478 120.5413 1.00273175 43332



Live tracking and technical data element details for INTELSAT 20 (IS-20) (NORAD 38740). INTELSAT 20 (IS-20) can be tracked NOW for your location showing map with azimuth and elevation plus other details from your city location.







IsCatalogInMostPopularTable: catalog: 38740, numindb: 711
Update: records affected: 1



GetName: 38740 INTELSAT 20 (IS-20)

Hit Count: updated at: Mon, 17 Jun 2024 22:13:51 GMT